GW2490 Weather Reports


Display with metric or nautical units.
time (UTC)temp
F
wind
direction
speed
MPH
gust
MPH
rain 1hr
in
rain 24hr
in
rain mn
in
humidity
%
barometer
mb
20260901104957 59 49 2.0 2.0 0.00 0.00 0.00 72 1008.1
20260901104953 0 0.0 0.0 0.00 0.00 0.00
20260901104500 59 54 2.0 3.0 0.00 0.00 0.00 72 1008.1
20260901104452 0 0.0 0.0 0.00 0.00 0.00
20260901103957 59 62 2.0 3.0 0.00 0.00 0.00 72 1008.1
20260901103457 59 48 2.0 3.0 0.00 0.00 0.00 73 1008.1
20260901103453 0 0.0 0.0 0.00 0.00 0.00
20260901102958 59 49 2.0 2.0 0.00 0.00 0.00 73 1008.1
20260901102954 0 0.0 0.0 0.00 0.00 0.00
20260901102458 59 51 2.0 3.0 0.00 0.00 0.00 74 1008.1
20260901102453 0 0.0 0.0 0.00 0.00 0.00
20260901101958 59 33 2.0 2.0 0.00 0.00 0.00 74 1008.1
20260901101951 0 0.0 0.0 0.00 0.00 0.00
20260901101457 59 29 1.0 2.0 0.00 0.00 0.00 74 1008.2
20260901101450 0 0.0 0.0 0.00 0.00 0.00
20260901100958 59 43 2.0 2.0 0.00 0.00 0.00 74 1008.1
20260901100951 0 0.0 0.0 0.00 0.00 0.00
20260901100458 59 55 2.0 3.0 0.00 0.00 0.00 75 1008.1
20260901100450 0 0.0 0.0 0.00 0.00 0.00
20260901095957 59 42 0.0 2.0 0.00 0.00 0.00 75 1008.1
20260901095947 0 0.0 0.0 0.00 0.00 0.00
20260901095458 59 22 1.0 3.0 0.00 0.00 0.00 75 1008.1
20260901095448 0 0.0 0.0 0.00 0.00 0.00
20260901094957 59 47 1.0 2.0 0.00 0.00 0.00 75 1008.2
20260901094458 59 48 1.0 2.0 0.00 0.00 0.00 75 1008.2
20260901093957 59 46 1.0 2.0 0.00 0.00 0.00 75 1008.1
20260901093948 0 0.0 0.0 0.00 0.00 0.00
20260901093457 60 45 1.0 3.0 0.00 0.00 0.00 74 1008.1
20260901093449 0 0.0 0.0 0.00 0.00 0.00
20260901092958 60 31 1.0 2.0 0.00 0.00 0.00 74 1008.1
20260901092948 0 0.0 0.0 0.00 0.00 0.00
20260901092458 60 45 1.0 2.0 0.00 0.00 0.00 73 1008.1
20260901092448 0 0.0 0.0 0.00 0.00 0.00
20260901091958 60 50 1.0 2.0 0.00 0.00 0.00 73 1008.1
20260901091947 0 0.0 0.0 0.00 0.00 0.00
20260901091459 60 355 0.0 1.0 0.00 0.00 0.00 73 1008.1
20260901091448 0 0.0 0.0 0.00 0.00 0.00
20260901090957 61 318 1.0 2.0 0.00 0.00 0.00 72 1008.1
20260901090945 0 0.0 0.0 0.00 0.00 0.00
20260901090457 61 317 1.0 2.0 0.00 0.00 0.00 72 1008.1
20260901090443 0 0.0 0.0 0.00 0.00 0.00
20260901085957 61 316 2.0 3.0 0.00 0.00 0.00 71 1008.1
20260901085942 0 0.0 0.0 0.00 0.00 0.00
20260901085458 61 301 2.0 4.0 0.00 0.00 0.00 71 1008.1
20260901085443 0 0.0 0.0 0.00 0.00 0.00
20260901084958 61 338 1.0 4.0 0.00 0.00 0.00 71 1008.1
20260901084940 0 0.0 0.0 0.00 0.00 0.00
20260901084457 61 330 3.0 5.0 0.00 0.00 0.00 72 1008.0
20260901084441 0 0.0 0.0 0.00 0.00 0.00
20260901083957 61 313 1.0 3.0 0.00 0.00 0.00 72 1008.1
20260901083941 0 0.0 0.0 0.00 0.00 0.00
20260901083457 61 9 1.0 2.0 0.00 0.00 0.00 71 1008.2
20260901083441 0 0.0 0.0 0.00 0.00 0.00
20260901083000 61 315 2.0 4.0 0.00 0.00 0.00 71 1008.1
20260901082941 0 0.0 0.0 0.00 0.00 0.00
20260901082457 62 318 2.0 4.0 0.00 0.00 0.00 70 1008.0
20260901082442 0 0.0 0.0 0.00 0.00 0.00
20260901081957 62 321 2.0 5.0 0.00 0.00 0.00 70 1008.1
20260901081457 62 301 2.0 3.0 0.00 0.00 0.00 70 1008.1
20260901081441 0 0.0 0.0 0.00 0.00 0.00
20260901080958 62 318 3.0 6.0 0.00 0.00 0.00 70 1008.0
20260901080940 0 0.0 0.0 0.00 0.00 0.00
20260901080458 61 325 4.0 6.0 0.00 0.00 0.00 70 1008.0
20260901080439 0 0.0 0.0 0.00 0.00 0.00
20260901075959 61 313 2.0 3.0 0.00 0.00 0.00 69 1008.0
20260901075939 0 0.0 0.0 0.00 0.00 0.00
20260901075457 61 316 1.0 3.0 0.00 0.00 0.00 69 1008.1
20260901074958 61 340 2.0 5.0 0.00 0.00 0.00 68 1008.0
20260901074939 0 0.0 0.0 0.00 0.00 0.00
20260901074458 61 342 1.0 3.0 0.00 0.00 0.00 68 1008.0
20260901074439 0 0.0 0.0 0.00 0.00 0.00
20260901073959 61 321 1.0 2.0 0.00 0.00 0.00 67 1008.0
20260901073939 0 0.0 0.0 0.00 0.00 0.00
20260901073457 61 335 2.0 4.0 0.00 0.00 0.00 68 1008.0
20260901073439 0 0.0 0.0 0.00 0.00 0.00
20260901072958 61 335 1.0 2.0 0.00 0.00 0.00 68 1008.0
20260901072939 0 0.0 0.0 0.00 0.00 0.00
20260901072459 61 308 2.0 4.0 0.00 0.00 0.00 68 1008.0
20260901072439 0 0.0 0.0 0.00 0.00 0.00
20260901071958 62 5 1.0 2.0 0.00 0.00 0.00 67 1008.1
20260901071939 0 0.0 0.0 0.00 0.00 0.00
20260901071457 62 312 0.0 2.0 0.00 0.00 0.00 67 1008.0
20260901071439 0 0.0 0.0 0.00 0.00 0.00
20260901070957 62 321 1.0 3.0 0.00 0.00 0.00 67 1008.0
20260901070458 62 333 1.0 2.0 0.00 0.00 0.00 67 1008.0
20260901070437 0 0.0 0.0 0.00 0.00 0.00
20260901065958 61 323 2.0 3.0 0.00 0.00 0.00 67 1008.1
20260901065936 0 0.0 0.0 0.00 0.00 0.00
20260901065459 61 347 1.0 3.0 0.00 0.00 0.00 67 1008.2
20260901064957 62 307 1.0 4.0 0.00 0.00 0.00 66 1008.3
20260901064458 62 45 1.0 2.0 0.00 0.00 0.00 65 1008.3
20260901064437 0 0.0 0.0 0.00 0.00 0.00
20260901063959 62 299 2.0 5.0 0.00 0.00 0.00 65 1008.2
20260901063457 62 312 0.0 2.0 0.00 0.00 0.00 64 1008.3
20260901062957 62 332 2.0 3.0 0.00 0.00 0.00 63 1008.4
20260901062937 0 0.0 0.0 0.00 0.00 0.00
20260901062458 63 312 2.0 4.0 0.00 0.00 0.00 61 1008.3
20260901062438 0 0.0 0.0 0.00 0.00 0.00
20260901061958 63 302 3.0 4.0 0.00 0.00 0.00 58 1008.2
20260901061937 0 0.0 0.0 0.00 0.00 0.00
20260901061457 63 335 4.0 7.0 0.00 0.00 0.00 58 1008.1
20260901061438 0 0.0 0.0 0.00 0.00 0.00
20260901060957 64 320 2.0 5.0 0.00 0.00 0.00 58 1008.3
20260901060934 0 0.0 0.0 0.00 0.00 0.00
20260901060457 64 320 2.0 4.0 0.00 0.00 0.00 57 1008.3
20260901060435 0 0.0 0.0 0.00 0.00 0.00
20260901055957 64 330 4.0 6.0 0.00 0.00 0.00 56 1008.2
20260901055934 0 0.0 0.0 0.00 0.00 0.00
20260901055457 64 324 4.0 7.0 0.00 0.00 0.00 57 1008.2
20260901055433 0 0.0 0.0 0.00 0.00 0.00
20260901054958 63 338 2.0 4.0 0.00 0.00 0.00 57 1008.3
20260901054932 0 0.0 0.0 0.00 0.00 0.00
20260901054457 63 326 4.0 6.0 0.00 0.00 0.00 57 1008.4
20260901054433 0 0.0 0.0 0.00 0.00 0.00
20260901053958 63 324 2.0 3.0 0.00 0.00 0.00 58 1008.3
20260901053933 0 0.0 0.0 0.00 0.00 0.00
20260901053457 63 328 4.0 7.0 0.00 0.00 0.00 58 1008.3
20260901053432 0 0.0 0.0 0.00 0.00 0.00
20260901052958 63 332 3.0 5.0 0.00 0.00 0.00 59 1008.3
20260901052933 0 0.0 0.0 0.00 0.00 0.00
20260901052457 63 332 3.0 6.0 0.00 0.00 0.00 59 1008.3
20260901052433 0 0.0 0.0 0.00 0.00 0.00
20260901051957 63 336 4.0 6.0 0.00 0.00 0.00 59 1008.3
20260901051933 0 0.0 0.0 0.00 0.00 0.00
20260901051457 63 333 3.0 5.0 0.00 0.00 0.00 59 1008.3
20260901051432 0 0.0 0.0 0.00 0.00 0.00
20260901050958 63 326 4.0 7.0 0.00 0.00 0.00 59 1008.3
20260901050934 0 0.0 0.0 0.00 0.00 0.00
20260901050458 63 334 3.0 5.0 0.00 0.00 0.00 60 1008.3
20260901050433 0 0.0 0.0 0.00 0.00 0.00
20260901045958 63 326 4.0 6.0 0.00 0.00 0.00 60 1008.3
20260901045933 0 0.0 0.0 0.00 0.00 0.00
20260901045458 63 339 5.0 7.0 0.00 0.00 0.00 61 1008.3
20260901045433 0 0.0 0.0 0.00 0.00 0.00
20260901044957 63 333 4.0 5.0 0.00 0.00 0.00 61 1008.3
20260901044457 63 328 5.0 7.0 0.00 0.00 0.00 60 1008.2
20260901044430 0 0.0 0.0 0.00 0.00 0.00
20260901043957 63 332 5.0 9.0 0.00 0.00 0.00 61 1008.2
20260901043930 0 0.0 0.0 0.00 0.00 0.00
20260901043457 63 331 5.0 9.0 0.00 0.00 0.00 60 1008.2
20260901043430 0 0.0 0.0 0.00 0.00 0.00
20260901042958 63 323 4.0 7.0 0.00 0.00 0.00 61 1008.3
20260901042930 0 0.0 0.0 0.00 0.00 0.00
20260901042458 63 339 5.0 8.0 0.00 0.00 0.00 61 1008.2
20260901042430 0 0.0 0.0 0.00 0.00 0.00
20260901041958 63 328 6.0 9.0 0.00 0.00 0.00 61 1008.1
20260901041927 0 0.0 0.0 0.00 0.00 0.00
20260901041457 63 330 6.0 8.0 0.00 0.00 0.00 61 1008.2
20260901041428 0 0.0 0.0 0.00 0.00 0.00
20260901040957 63 333 4.0 7.0 0.00 0.00 0.00 61 1008.3
20260901040927 0 0.0 0.0 0.00 0.00 0.00
20260901040458 63 332 4.0 6.0 0.00 0.00 0.00 61 1008.3
20260901040428 0 0.0 0.0 0.00 0.00 0.00
20260901035957 63 317 4.0 7.0 0.00 0.00 0.00 61 1008.2
20260901035928 0 0.0 0.0 0.00 0.00 0.00
20260901035458 62 334 4.0 8.0 0.00 0.00 0.00 60 1008.2
20260901035427 0 0.0 0.0 0.00 0.00 0.00
20260901034958 62 333 4.0 7.0 0.00 0.00 0.00 61 1008.3
20260901034928 0 0.0 0.0 0.00 0.00 0.00
20260901034458 62 332 6.0 8.0 0.00 0.00 0.00 61 1008.3
20260901034428 0 0.0 0.0 0.00 0.00 0.00
20260901033957 62 321 5.0 7.0 0.00 0.00 0.00 61 1008.2
20260901033929 0 0.0 0.0 0.00 0.00 0.00
20260901033457 62 322 5.0 7.0 0.00 0.00 0.00 61 1008.2
20260901033428 0 0.0 0.0 0.00 0.00 0.00
20260901032959 62 326 5.0 9.0 0.00 0.00 0.00 61 1008.2
20260901032929 0 0.0 0.0 0.00 0.00 0.00
20260901032458 62 323 7.0 10.0 0.00 0.00 0.00 61 1008.2
20260901032429 0 0.0 0.0 0.00 0.00 0.00
20260901031958 62 330 7.0 11.0 0.00 0.00 0.00 61 1008.2
20260901031928 0 0.0 0.0 0.00 0.00 0.00
20260901031459 62 321 5.0 8.0 0.00 0.00 0.00 62 1008.2
20260901031429 0 0.0 0.0 0.00 0.00 0.00
20260901030958 62 325 7.0 9.0 0.00 0.00 0.00 63 1008.2
20260901030925 0 0.0 0.0 0.00 0.00 0.00
20260901030457 62 332 5.0 9.0 0.00 0.00 0.00 62 1008.2
20260901030426 0 0.0 0.0 0.00 0.00 0.00
20260901025957 62 330 5.0 9.0 0.00 0.00 0.00 62 1008.2
20260901025459 62 322 5.0 9.0 0.00 0.00 0.00 63 1008.2
20260901024959 62 309 4.0 7.0 0.00 0.00 0.00 64 1008.3
20260901024459 61 324 5.0 8.0 0.00 0.00 0.00 66 1008.3
20260901023957 62 321 5.0 9.0 0.00 0.00 0.00 68 1008.3
20260901023926 0 0.0 0.0 0.00 0.00 0.00
20260901023458 62 318 5.0 8.0 0.00 0.00 0.00 69 1008.3
20260901023426 0 0.0 0.0 0.00 0.00 0.00
20260901022957 62 316 4.0 5.0 0.00 0.00 0.00 69 1008.4
20260901022927 0 0.0 0.0 0.00 0.00 0.00
20260901022458 63 308 6.0 8.0 0.00 0.00 0.00 68 1008.4
20260901022426 0 0.0 0.0 0.00 0.00 0.00
20260901021959 63 327 4.0 7.0 0.00 0.00 0.00 67 1008.4
20260901021926 0 0.0 0.0 0.00 0.00 0.00
20260901021458 64 316 4.0 9.0 0.00 0.00 0.00 65 1008.4
20260901021424 0 0.0 0.0 0.00 0.00 0.00
20260901020958 63 306 4.0 6.0 0.00 0.00 0.00 65 1008.4
20260901020920 0 0.0 0.0 0.00 0.00 0.00
20260901020459 63 323 5.0 7.0 0.00 0.00 0.00 66 1008.4
20260901020421 0 0.0 0.0 0.00 0.00 0.00
20260901020006 63 313 6.0 8.0 0.00 0.00 0.00 67 1008.4
20260901015921 0 0.0 0.0 0.00 0.00 0.00
20260901015458 63 318 4.0 7.0 0.00 0.00 0.00 67 1008.6
20260901015422 0 0.0 0.0 0.00 0.00 0.00
20260901014957 63 315 4.0 6.0 0.00 0.00 0.00 67 1008.6
20260901014922 0 0.0 0.0 0.00 0.00 0.00
20260901014457 63 305 6.0 7.0 0.00 0.00 0.00 67 1008.6
20260901014418 0 0.0 0.0 0.00 0.00 0.00
20260901013957 63 311 4.0 7.0 0.00 0.00 0.00 66 1008.7
20260901013919 0 0.0 0.0 0.00 0.00 0.00
20260901013458 63 309 5.0 6.0 0.00 0.00 0.00 64 1008.7
20260901013419 0 0.0 0.0 0.00 0.00 0.00
20260901012957 63 322 4.0 5.0 0.00 0.00 0.00 64 1008.8
20260901012918 0 0.0 0.0 0.00 0.00 0.00
20260901012457 63 314 4.0 6.0 0.00 0.00 0.00 64 1008.8
20260901012416 0 0.0 0.0 0.00 0.00 0.00
20260901011957 63 321 4.0 6.0 0.00 0.00 0.00 64 1008.9
20260901011916 0 0.0 0.0 0.00 0.00 0.00
20260901011458 64 316 5.0 7.0 0.00 0.00 0.00 64 1008.9
20260901011416 0 0.0 0.0 0.00 0.00 0.00
20260901010958 64 300 5.0 9.0 0.00 0.00 0.00 64 1008.9
20260901010913 0 0.0 0.0 0.00 0.00 0.00
20260901010457 64 309 3.0 8.0 0.00 0.00 0.00 64 1008.9
20260901010413 0 0.0 0.0 0.00 0.00 0.00
20260901005957 64 317 4.0 6.0 0.00 0.00 0.00 64 1008.9
20260901005912 0 0.0 0.0 0.00 0.00 0.00
20260901005500 64 312 5.0 7.0 0.00 0.00 0.00 64 1009.0
20260901004959 64 326 4.0 6.0 0.00 0.00 0.00 63 1009.0
20260901004913 0 0.0 0.0 0.00 0.00 0.00
20260901004458 64 299 4.0 6.0 0.00 0.00 0.00 63 1009.0
20260901004418 0 0.0 0.0 0.00 0.00 0.00
20260901003958 64 302 4.0 8.0 0.00 0.00 0.00 63 1008.9
20260901003913 0 0.0 0.0 0.00 0.00 0.00
20260901003458 64 312 4.0 8.0 0.00 0.00 0.00 64 1009.0
20260901003413 0 0.0 0.0 0.00 0.00 0.00
20260901002959 64 307 4.0 6.0 0.00 0.00 0.00 64 1009.0
20260901002913 0 0.0 0.0 0.00 0.00 0.00
20260901002458 64 313 6.0 9.0 0.00 0.00 0.00 63 1009.0
20260901002413 0 0.0 0.0 0.00 0.00 0.00
20260901001958 64 326 4.0 7.0 0.00 0.00 0.00 64 1009.1
20260901001911 0 0.0 0.0 0.00 0.00 0.00
20260901001458 64 314 4.0 6.0 0.00 0.00 0.00 63 1009.2
20260901001411 0 0.0 0.0 0.00 0.00 0.00
20260901000958 64 308 5.0 8.0 0.00 0.00 0.00 63 1009.2
20260901000910 0 0.0 0.0 0.00 0.00 0.00
20260901000458 64 311 5.0 9.0 0.00 0.00 0.00 64 1009.2
20260901000413 0 0.0 0.0 0.00 0.00 0.00
20260831235958 64 316 4.0 7.0 0.00 0.00 0.00 64 1009.3
20260831235911 0 0.0 0.0 0.00 0.00 0.00
20260831235458 65 305 6.0 9.0 0.00 0.00 0.00 64 1009.4
20260831235411 0 0.0 0.0 0.00 0.00 0.00
20260831234957 66 305 5.0 8.0 0.00 0.00 0.00 63 1009.5
20260831234457 66 319 4.0 7.0 0.00 0.00 0.00 63 1009.4
20260831234411 0 0.0 0.0 0.00 0.00 0.00
20260831233957 67 299 6.0 10.0 0.00 0.00 0.00 62 1009.5
20260831233457 67 305 3.0 6.0 0.00 0.00 0.00 61 1009.4
20260831232957 67 289 5.0 9.0 0.00 0.00 0.00 60 1009.5
20260831232912 0 0.0 0.0 0.00 0.00 0.00
20260831232458 67 307 3.0 6.0 0.00 0.00 0.00 60 1009.5
20260831231957 66 314 4.0 9.0 0.00 0.00 0.00 61 1009.7
20260831231909 0 0.0 0.0 0.00 0.00 0.00
20260831231458 66 300 6.0 9.0 0.00 0.00 0.00 61 1009.7
20260831231408 0 0.0 0.0 0.00 0.00 0.00
20260831230957 66 300 5.0 10.0 0.00 0.00 0.00 61 1009.7
20260831230909 0 0.0 0.0 0.00 0.00 0.00
20260831230458 66 306 4.0 8.0 0.00 0.00 0.00 61 1009.9
20260831230408 0 0.0 0.0 0.00 0.00 0.00
20260831225957 66 287 4.0 7.0 0.00 0.00 0.00 61 1009.9
20260831225909 0 0.0 0.0 0.00 0.00 0.00
20260831225457 66 302 5.0 8.0 0.00 0.00 0.00 63 1010.1
20260831225409 0 0.0 0.0 0.00 0.00 0.00
20260831224957 66 301 5.0 9.0 0.00 0.00 0.00 62 1010.0
20260831224909 0 0.0 0.0 0.00 0.00 0.00
20260831224458 66 296 4.0 9.0 0.00 0.00 0.00 62 1010.0
20260831224409 0 0.0 0.0 0.00 0.00 0.00
20260831223957 65 307 6.0 9.0 0.00 0.00 0.00 63 1010.1
20260831223909 0 0.0 0.0 0.00 0.00 0.00
20260831223457 66 296 7.0 11.0 0.00 0.00 0.00 66 1010.1
20260831222959 66 290 5.0 9.0 0.00 0.00 0.00 66 1010.2
20260831222909 0 0.0 0.0 0.00 0.00 0.00
20260831222458 65 305 5.0 8.0 0.00 0.00 0.00 68 1010.3
20260831222409 0 0.0 0.0 0.00 0.00 0.00
20260831221958 66 307 4.0 7.0 0.00 0.00 0.00 65 1010.4
20260831221910 0 0.0 0.0 0.00 0.00 0.00
20260831221458 66 286 3.0 6.0 0.00 0.00 0.00 66 1010.4
20260831221410 0 0.0 0.0 0.00 0.00 0.00
20260831220958 66 296 5.0 9.0 0.00 0.00 0.00 65 1010.4
20260831220906 0 0.0 0.0 0.00 0.00 0.00
20260831220458 65 309 4.0 8.0 0.00 0.00 0.00 66 1010.5
20260831215957 64 315 6.0 9.0 0.00 0.00 0.00 69 1010.6
20260831215459 64 307 6.0 8.0 0.00 0.00 0.00 70 1010.9
20260831214957 64 304 5.0 9.0 0.00 0.00 0.00 69 1010.9
20260831214907 0 0.0 0.0 0.00 0.00 0.00
20260831214459 65 309 5.0 8.0 0.00 0.00 0.00 69 1010.8
20260831214408 0 0.0 0.0 0.00 0.00 0.00
20260831213959 65 302 5.0 9.0 0.00 0.00 0.00 68 1010.7
20260831213907 0 0.0 0.0 0.00 0.00 0.00
20260831213457 66 292 3.0 8.0 0.00 0.00 0.00 67 1010.7
20260831212957 65 299 5.0 7.0 0.00 0.00 0.00 69 1010.9
20260831212458 65 308 6.0 11.0 0.00 0.00 0.00 69 1010.9
20260831212404 0 0.0 0.0 0.00 0.00 0.00
20260831211958 65 293 6.0 12.0 0.00 0.00 0.00 69 1010.9
20260831211904 0 0.0 0.0 0.00 0.00 0.00
20260831211458 65 309 6.0 10.0 0.00 0.00 0.00 70 1010.9
20260831211401 0 0.0 0.0 0.00 0.00 0.00
20260831210957 65 307 3.0 8.0 0.00 0.00 0.00 70 1010.9
20260831210902 0 0.0 0.0 0.00 0.00 0.00
20260831210457 65 278 4.0 8.0 0.00 0.00 0.00 69 1011.0
20260831210401 0 0.0 0.0 0.00 0.00 0.00
20260831210000 65 283 6.0 11.0 0.00 0.00 0.00 69 1011.1
20260831205902 0 0.0 0.0 0.00 0.00 0.00
20260831205459 65 286 5.0 9.0 0.00 0.00 0.00 70 1011.1
20260831205000 64 300 2.0 6.0 0.00 0.00 0.00 72 1011.1
20260831204902 0 0.0 0.0 0.00 0.00 0.00
20260831204457 64 300 6.0 13.0 0.00 0.00 0.00 71 1011.2
20260831204358 0 0.0 0.0 0.00 0.00 0.00
20260831204001 63 296 5.0 11.0 0.00 0.00 0.00 72 1011.3
20260831203900 0 0.0 0.0 0.00 0.00 0.00
20260831203457 63 301 6.0 8.0 0.00 0.00 0.00 72 1011.5
20260831203359 0 0.0 0.0 0.00 0.00 0.00
20260831202957 63 293 3.0 6.0 0.00 0.00 0.00 72 1011.6
20260831202900 0 0.0 0.0 0.00 0.00 0.00
20260831202458 63 288 4.0 8.0 0.00 0.00 0.00 71 1011.6
20260831202359 0 0.0 0.0 0.00 0.00 0.00
20260831201958 63 309 5.0 9.0 0.00 0.00 0.00 71 1011.7
20260831201859 0 0.0 0.0 0.00 0.00 0.00
20260831201458 64 294 4.0 7.0 0.00 0.00 0.00 69 1011.9
20260831201357 0 0.0 0.0 0.00 0.00 0.00
20260831200957 64 292 3.0 12.0 0.00 0.00 0.00 68 1011.9
20260831200856 0 0.0 0.0 0.00 0.00 0.00
20260831200457 65 266 6.0 9.0 0.00 0.00 0.00 66 1011.7
20260831195957 64 313 6.0 10.0 0.00 0.00 0.00 66 1011.7
20260831195458 64 307 4.0 7.0 0.00 0.00 0.00 65 1011.7
20260831195357 0 0.0 0.0 0.00 0.00 0.00
20260831194958 64 277 4.0 6.0 0.00 0.00 0.00 67 1011.8
20260831194458 64 297 5.0 7.0 0.00 0.00 0.00 67 1011.9
20260831194356 0 0.0 0.0 0.00 0.00 0.00
20260831193958 64 295 4.0 8.0 0.00 0.00 0.00 67 1011.9
20260831193857 0 0.0 0.0 0.00 0.00 0.00
20260831193458 64 316 4.0 8.0 0.00 0.00 0.00 66 1012.0
20260831193357 0 0.0 0.0 0.00 0.00 0.00
20260831192957 64 296 6.0 9.0 0.00 0.00 0.00 67 1012.1
20260831192857 0 0.0 0.0 0.00 0.00 0.00
20260831192459 64 284 4.0 10.0 0.00 0.00 0.00 67 1012.0
20260831192357 0 0.0 0.0 0.00 0.00 0.00
20260831191957 64 272 3.0 7.0 0.00 0.00 0.00 67 1012.0
20260831191854 0 0.0 0.0 0.00 0.00 0.00
20260831191457 63 293 4.0 8.0 0.00 0.00 0.00 67 1012.2
20260831191355 0 0.0 0.0 0.00 0.00 0.00
20260831190958 63 275 4.0 7.0 0.00 0.00 0.00 68 1012.2
20260831190852 0 0.0 0.0 0.00 0.00 0.00
20260831190458 63 275 4.0 7.0 0.00 0.00 0.00 69 1012.4
20260831190351 0 0.0 0.0 0.00 0.00 0.00
20260831185958 63 298 4.0 8.0 0.00 0.00 0.00 68 1012.5
20260831185458 63 269 4.0 9.0 0.00 0.00 0.00 68 1012.2
20260831184957 63 281 5.0 10.0 0.00 0.00 0.00 68 1012.3
20260831184852 0 0.0 0.0 0.00 0.00 0.00
20260831184458 63 294 3.0 6.0 0.00 0.00 0.00 68 1012.2
20260831184352 0 0.0 0.0 0.00 0.00 0.00
20260831183958 63 283 2.0 4.0 0.00 0.00 0.00 69 1012.4
20260831183851 0 0.0 0.0 0.00 0.00 0.00
20260831183458 63 300 4.0 6.0 0.00 0.00 0.00 69 1012.4
20260831183352 0 0.0 0.0 0.00 0.00 0.00
20260831182957 63 301 5.0 9.0 0.00 0.00 0.00 69 1012.5
20260831182853 0 0.0 0.0 0.00 0.00 0.00
20260831182458 63 273 5.0 8.0 0.00 0.00 0.00 67 1012.6
20260831182352 0 0.0 0.0 0.00 0.00 0.00
20260831181959 62 301 3.0 4.0 0.00 0.00 0.00 69 1012.7
20260831181458 62 291 3.0 6.0 0.00 0.00 0.00 70 1012.7
20260831181352 0 0.0 0.0 0.00 0.00 0.00
20260831180958 62 295 3.0 5.0 0.00 0.00 0.00 69 1012.7
20260831180850 0 0.0 0.0 0.00 0.00 0.00
20260831180457 62 297 4.0 6.0 0.00 0.00 0.00 69 1012.6
20260831180354 0 0.0 0.0 0.00 0.00 0.00
20260831175957 62 295 4.0 9.0 0.00 0.00 0.00 69 1012.6
20260831175850 0 0.0 0.0 0.00 0.00 0.00
20260831175458 62 303 2.0 5.0 0.00 0.00 0.00 70 1012.6
20260831175351 0 0.0 0.0 0.00 0.00 0.00
20260831174957 61 298 4.0 6.0 0.00 0.00 0.00 70 1012.7
20260831174850 0 0.0 0.0 0.00 0.00 0.00
20260831174459 61 311 4.0 6.0 0.00 0.00 0.00 71 1012.8
20260831173957 61 299 4.0 6.0 0.00 0.00 0.00 72 1013.2
20260831173458 60 313 3.0 5.0 0.00 0.00 0.00 72 1013.3
20260831173350 0 0.0 0.0 0.00 0.00 0.00
20260831172958 60 310 3.0 6.0 0.00 0.00 0.00 73 1013.3
20260831172850 0 0.0 0.0 0.00 0.00 0.00
20260831172457 60 299 3.0 5.0 0.00 0.00 0.00 73 1013.3
20260831172350 0 0.0 0.0 0.00 0.00 0.00
20260831171957 61 313 4.0 5.0 0.00 0.00 0.00 73 1013.3
20260831171850 0 0.0 0.0 0.00 0.00 0.00
20260831171502 61 300 2.0 5.0 0.00 0.00 0.00 72 1013.4
20260831171348 0 0.0 0.0 0.00 0.00 0.00
20260831170958 61 310 2.0 5.0 0.00 0.00 0.00 72 1013.5
20260831170847 0 0.0 0.0 0.00 0.00 0.00
20260831170458 61 262 2.0 3.0 0.00 0.00 0.00 73 1013.5
20260831165958 61 258 2.0 5.0 0.00 0.00 0.00 72 1013.6
20260831165848 0 0.0 0.0 0.00 0.00 0.00
20260831165458 61 172 3.0 6.0 0.00 0.00 0.00 72 1013.6
20260831164958 60 176 1.0 2.0 0.00 0.00 0.00 72 1013.5
20260831164847 0 0.0 0.0 0.00 0.00 0.00
20260831164500 60 227 2.0 3.0 0.00 0.00 0.00 72 1013.4
20260831164348 0 0.0 0.0 0.00 0.00 0.00
20260831164000 60 130 1.0 2.0 0.00 0.00 0.00 73 1013.4
20260831163847 0 0.0 0.0 0.00 0.00 0.00
20260831163457 60 131 2.0 3.0 0.00 0.00 0.00 74 1013.5
20260831163349 0 0.0 0.0 0.00 0.00 0.00
20260831162957 60 213 1.0 2.0 0.00 0.00 0.00 74 1013.4
20260831162848 0 0.0 0.0 0.00 0.00 0.00
20260831162457 61 221 1.0 2.0 0.00 0.00 0.00 74 1013.3
20260831161958 60 235 2.0 3.0 0.00 0.00 0.00 72 1013.3
20260831161846 0 0.0 0.0 0.00 0.00 0.00
20260831161458 60 227 1.0 3.0 0.00 0.00 0.00 75 1013.4
20260831161347 0 0.0 0.0 0.00 0.00 0.00
20260831160958 60 159 1.0 2.0 0.00 0.00 0.00 75 1013.5
20260831160846 0 0.0 0.0 0.00 0.00 0.00
20260831160459 60 134 0.0 2.0 0.00 0.00 0.00 77 1013.4
20260831160347 0 0.0 0.0 0.00 0.00 0.00
20260831155958 60 285 0.0 3.0 0.00 0.00 0.00 76 1013.3
20260831155847 0 0.0 0.0 0.00 0.00 0.00
20260831155458 59 128 0.0 2.0 0.00 0.00 0.00 74 1013.3
20260831154958 59 179 1.0 2.0 0.00 0.00 0.00 76 1013.4
20260831154847 0 0.0 0.0 0.00 0.00 0.00
20260831154458 58 156 2.0 2.0 0.00 0.00 0.00 79 1013.4
20260831153958 58 190 1.0 2.0 0.00 0.00 0.00 77 1013.4
20260831153847 0 0.0 0.0 0.00 0.00 0.00
20260831153504 58 143 0.0 1.0 0.00 0.00 0.00 79 1013.5
20260831153348 0 0.0 0.0 0.00 0.00 0.00
20260831152957 57 86 0.0 2.0 0.00 0.00 0.00 79 1013.5
20260831152458 56 159 1.0 2.0 0.00 0.00 0.00 81 1013.6
20260831152347 0 0.0 0.0 0.00 0.00 0.00
20260831151957 56 290 0.0 1.0 0.00 0.00 0.00 81 1013.8
20260831151846 0 0.0 0.0 0.00 0.00 0.00
20260831151457 56 228 1.0 2.0 0.00 0.00 0.00 80 1013.7
20260831151346 0 0.0 0.0 0.00 0.00 0.00
20260831150957 56 320 1.0 3.0 0.00 0.00 0.00 81 1013.7
20260831150846 0 0.0 0.0 0.00 0.00 0.00
20260831150457 56 360 1.0 2.0 0.00 0.00 0.00 82 1013.8
20260831150345 0 0.0 0.0 0.00 0.00 0.00
20260831145958 56 329 2.0 3.0 0.00 0.00 0.00 81 1013.8
20260831145838 0 0.0 0.0 0.00 0.00 0.00
20260831145457 56 325 0.0 2.0 0.00 0.00 0.00 80 1013.8
20260831144958 56 329 1.0 1.0 0.00 0.00 0.00 80 1013.9
20260831144837 0 0.0 0.0 0.00 0.00 0.00
20260831144459 56 360 0.0 0.0 0.00 0.00 0.00 79 1013.8
20260831144338 0 0.0 0.0 0.00 0.00 0.00
20260831143958 56 56 0.0 2.0 0.00 0.00 0.00 80 1013.8
20260831143837 0 0.0 0.0 0.00 0.00 0.00
20260831143458 56 225 1.0 2.0 0.00 0.00 0.00 79 1013.8
20260831143335 0 0.0 0.0 0.00 0.00 0.00
20260831142958 56 28 0.0 2.0 0.00 0.00 0.00 81 1013.7
20260831142835 0 0.0 0.0 0.00 0.00 0.00
20260831142457 55 114 0.0 2.0 0.00 0.00 0.00 82 1013.7
20260831142335 0 0.0 0.0 0.00 0.00 0.00
20260831141957 55 58 1.0 2.0 0.00 0.00 0.00 84 1013.8
20260831141835 0 0.0 0.0 0.00 0.00 0.00
20260831141459 54 168 0.0 0.0 0.00 0.00 0.00 87 1013.8
20260831141335 0 0.0 0.0 0.00 0.00 0.00
20260831140958 53 267 0.0 1.0 0.00 0.00 0.00 89 1013.8
20260831140836 0 0.0 0.0 0.00 0.00 0.00
20260831140458 53 20 0.0 1.0 0.00 0.00 0.00 90 1013.8
20260831135958 53 340 2.0 3.0 0.00 0.00 0.00 90 1013.7
20260831135833 0 0.0 0.0 0.00 0.00 0.00
20260831135458 53 336 2.0 4.0 0.00 0.00 0.00 90 1013.7
20260831135332 0 0.0 0.0 0.00 0.00 0.00
20260831134957 53 357 1.0 3.0 0.00 0.00 0.00 89 1013.6
20260831134833 0 0.0 0.0 0.00 0.00 0.00
20260831134457 54 329 3.0 4.0 0.00 0.00 0.00 88 1013.7
20260831134333 0 0.0 0.0 0.00 0.00 0.00
20260831133957 54 328 3.0 4.0 0.00 0.00 0.00 86 1013.8
20260831133833 0 0.0 0.0 0.00 0.00 0.00
20260831133458 55 327 3.0 4.0 0.00 0.00 0.00 83 1013.8
20260831133334 0 0.0 0.0 0.00 0.00 0.00
20260831132957 55 21 1.0 2.0 0.00 0.00 0.00 83 1013.8
20260831132833 0 0.0 0.0 0.00 0.00 0.00
20260831132458 56 310 0.0 1.0 0.00 0.00 0.00 82 1013.9
20260831132333 0 0.0 0.0 0.00 0.00 0.00
20260831131959 55 360 0.0 2.0 0.00 0.00 0.00 82 1013.9
20260831131833 0 0.0 0.0 0.00 0.00 0.00
20260831131458 55 153 0.0 1.0 0.00 0.00 0.00 82 1014.0
20260831131334 0 0.0 0.0 0.00 0.00 0.00
20260831130958 55 349 1.0 3.0 0.00 0.00 0.00 83 1014.0
20260831130831 0 0.0 0.0 0.00 0.00 0.00
20260831130501 55 57 0.0 2.0 0.00 0.00 0.00 82 1014.2
20260831130330 0 0.0 0.0 0.00 0.00 0.00
20260831125958 55 39 1.0 2.0 0.00 0.00 0.00 81 1014.2
20260831125827 0 0.0 0.0 0.00 0.00 0.00
20260831125458 55 22 0.0 1.0 0.00 0.00 0.00 81 1014.2
20260831125328 0 0.0 0.0 0.00 0.00 0.00
20260831124957 55 311 2.0 2.0 0.00 0.00 0.00 81 1014.3
20260831124828 0 0.0 0.0 0.00 0.00 0.00
20260831124457 55 218 0.0 0.0 0.00 0.00 0.00 81 1014.4
20260831124328 0 0.0 0.0 0.00 0.00 0.00
20260831123958 54 26 1.0 2.0 0.00 0.00 0.00 82 1014.4
20260831123828 0 0.0 0.0 0.00 0.00 0.00
20260831123457 55 360 0.0 0.0 0.00 0.00 0.00 81 1014.4
20260831123328 0 0.0 0.0 0.00 0.00 0.00
20260831122958 55 43 0.0 1.0 0.00 0.00 0.00 81 1014.5
20260831122828 0 0.0 0.0 0.00 0.00 0.00
20260831122457 55 55 1.0 2.0 0.00 0.00 0.00 80 1014.5
20260831122328 0 0.0 0.0 0.00 0.00 0.00
20260831121958 55 78 1.0 2.0 0.00 0.00 0.00 79 1014.5
20260831121829 0 0.0 0.0 0.00 0.00 0.00
20260831121458 55 32 1.0 2.0 0.00 0.00 0.00 79 1014.6
20260831121326 0 0.0 0.0 0.00 0.00 0.00
20260831120958 55 18 1.0 2.0 0.00 0.00 0.00 80 1014.5
20260831120825 0 0.0 0.0 0.00 0.00 0.00
20260831120458 55 358 1.0 2.0 0.00 0.00 0.00 80 1014.5
20260831120322 0 0.0 0.0 0.00 0.00 0.00
20260831115957 55 28 0.0 1.0 0.00 0.00 0.00 80 1014.5
20260831115823 0 0.0 0.0 0.00 0.00 0.00
20260831115459 55 22 1.0 2.0 0.00 0.00 0.00 80 1014.6
20260831114957 55 65 0.0 1.0 0.00 0.00 0.00 79 1014.7
20260831114819 0 0.0 0.0 0.00 0.00 0.00
20260831114457 55 55 1.0 3.0 0.00 0.00 0.00 79 1014.7
20260831113958 55 8 1.0 3.0 0.00 0.00 0.00 79 1014.8
20260831113820 0 0.0 0.0 0.00 0.00 0.00
20260831113459 56 7 1.0 2.0 0.00 0.00 0.00 78 1014.8
20260831113319 0 0.0 0.0 0.00 0.00 0.00
20260831112959 56 12 1.0 2.0 0.00 0.00 0.00 79 1014.8
20260831112820 0 0.0 0.0 0.00 0.00 0.00
20260831112458 56 304 0.0 2.0 0.00 0.00 0.00 78 1014.9
20260831111958 56 43 2.0 2.0 0.00 0.00 0.00 77 1014.8
20260831111820 0 0.0 0.0 0.00 0.00 0.00
20260831111458 56 40 1.0 2.0 0.00 0.00 0.00 78 1014.8
20260831111317 0 0.0 0.0 0.00 0.00 0.00
20260831110958 56 20 1.0 2.0 0.00 0.00 0.00 78 1014.9
20260831110818 0 0.0 0.0 0.00 0.00 0.00
20260831110458 56 26 1.0 3.0 0.00 0.00 0.00 78 1014.9
20260831105957 56 38 1.0 2.0 0.00 0.00 0.00 76 1014.9
20260831105818 0 0.0 0.0 0.00 0.00 0.00
20260831105458 56 75 1.0 3.0 0.00 0.00 0.00 77 1015.0
20260831105318 0 0.0 0.0 0.00 0.00 0.00